Rockport, TX

1:49 PM CDT on May 28, 2017 (GMT -0500)
Aransas County

Weather History for KRKP - February, 2012

Change the Weather History Date:

Tuesday, February 21, 2012

  Actual Average Record
Temperature  
Mean Temperature 68 °F -  
Max Temperature 75 °F 70 °F 87 °F (1986)
Min Temperature 60 °F 53 °F 33 °F (1978)
Cooling Degree Days 2    
Growing Degree Days 18 (Base 50)    
Moisture  
Dew Point 63 °F    
Average Humidity 94    
Maximum Humidity 100    
Minimum Humidity 67    
Precipitation  
Precipitation 0.00 in - - ()
Sea Level Pressure  
Sea Level Pressure 30.08 in    
Wind  
Wind Speed 5 mph (ESE)    
Max Wind Speed 12 mph    
Max Gust Speed -    
Visibility 4 miles    
Events Fog    
Averages and records for this station are not official NWS values.
T = Trace of Precipitation, MM = Missing Value Source: NWS Daily Summary

Daily Weather History Graph

Daily Weather History Graph

Search for Another Location

Airport or City:

Trip Planner

Search our weather history database for the weather conditions in past years. The results will help you decide how hot, cold, wet, or windy it might be!

Date:

Astronomy

Feb. 21, 2012 Rise Set
Actual Time 7:01 AM CST 6:22 PM CST
Civil Twilight 6:37 AM CST 6:46 PM CST
Nautical Twilight 6:09 AM CST 7:14 PM CST
Astronomical Twilight 5:42 AM CST 7:41 PM CST
Moon 6:33 AM CST (2/21) 6:25 PM CST (2/21)
Length of Visible Light 12h 09m
Length of Day
11h 21m
Waning Crescent, 0% of the Moon is Illuminated
Feb 21
Waning Crescent
Feb 21
New
Feb 29
First Quarter
Mar 8
Full
Mar 14
Last Quarter

Hourly Weather History & Observations

Time (CST) Temp. Dew Point Humidity Pressure Visibility Wind Dir Wind Speed Gust Speed Precip Events Conditions
12:53 AM 62.1 °F 61.0 °F 96% 30.11 in 6.0 mi ESE 4.6 mph - N/A   Clear
1:53 AM 62.1 °F 61.0 °F 96% 30.11 in 5.0 mi SE 4.6 mph - N/A   Clear
2:53 AM 62.1 °F 61.0 °F 96% 30.08 in 4.0 mi SE 3.5 mph - N/A   Clear
3:39 AM 60.8 °F 60.8 °F 100% 30.07 in 2.0 mi ESE 3.5 mph - N/A   Clear
3:53 AM 62.1 °F 61.0 °F 96% 30.07 in 1.5 mi SE 3.5 mph - N/A   Clear
3:58 AM 62.6 °F 60.8 °F 94% 30.07 in 2.5 mi SE 3.5 mph - N/A   Clear
4:08 AM 62.6 °F 60.8 °F 94% 30.06 in 3.0 mi SE 4.6 mph - N/A   Clear
4:34 AM 60.8 °F 60.8 °F 100% 30.07 in 2.5 mi SE 3.5 mph - N/A   Clear
4:43 AM 60.8 °F 60.8 °F 100% 30.08 in 1.8 mi Calm Calm - N/A   Partly Cloudy
4:50 AM 60.8 °F 60.8 °F 100% 30.08 in 0.8 mi Calm Calm - N/A   Partly Cloudy
4:53 AM 61.0 °F 60.1 °F 97% 30.09 in 1.0 mi SE 3.5 mph - N/A   Partly Cloudy
5:01 AM 62.6 °F 60.8 °F 94% 30.08 in 1.5 mi SE 3.5 mph - N/A   Mostly Cloudy
5:09 AM 62.6 °F 62.6 °F 100% 30.08 in 2.5 mi SE 3.5 mph - N/A   Mostly Cloudy
5:46 AM 62.6 °F 62.6 °F 100% 30.09 in 1.8 mi ESE 3.5 mph - N/A   Scattered Clouds
5:53 AM 62.1 °F 61.0 °F 96% 30.09 in 0.8 mi ESE 3.5 mph - N/A   Partly Cloudy
6:09 AM 60.8 °F 60.8 °F 100% 30.10 in 0.2 mi East 3.5 mph - N/A Fog Fog
6:32 AM 60.8 °F 60.8 °F 100% 30.11 in 0.5 mi East 3.5 mph - N/A Fog Fog
6:41 AM 60.8 °F 60.8 °F 100% 30.11 in 0.8 mi Calm Calm - N/A   Overcast
6:53 AM 61.0 °F 61.0 °F 100% 30.12 in 0.5 mi Calm Calm - N/A Fog Fog
7:53 AM 62.1 °F 62.1 °F 100% 30.13 in 0.5 mi Calm Calm - N/A Fog Fog
8:53 AM 64.0 °F 63.0 °F 96% 30.16 in 0.2 mi East 3.5 mph - N/A Fog Fog
9:53 AM 64.9 °F 64.0 °F 97% 30.16 in 0.2 mi East 4.6 mph - N/A Fog Fog
10:17 AM 64.4 °F 64.4 °F 100% 30.16 in 1.0 mi ESE 4.6 mph - N/A   Overcast
10:34 AM 66.2 °F 64.4 °F 94% 30.16 in 2.0 mi ESE 3.5 mph - N/A   Overcast
10:36 AM 66.2 °F 64.4 °F 94% 30.16 in 3.0 mi ESE 4.6 mph - N/A   Mostly Cloudy
10:51 AM 69.8 °F 64.4 °F 83% 30.15 in 10.0 mi ESE 4.6 mph - N/A   Scattered Clouds
10:53 AM 70.0 °F 64.9 °F 84% 30.16 in 10.0 mi ESE 4.6 mph - N/A   Partly Cloudy
11:53 AM 73.9 °F 66.0 °F 76% 30.14 in 10.0 mi ESE 6.9 mph - N/A   Clear
12:53 PM 75.0 °F 64.9 °F 71% 30.11 in 10.0 mi ESE 8.1 mph - N/A   Clear
1:53 PM 75.9 °F 64.0 °F 67% 30.08 in 10.0 mi ESE 6.9 mph - N/A   Clear
2:53 PM 75.0 °F 66.0 °F 73% 30.05 in 10.0 mi ESE 10.4 mph - N/A   Clear
3:53 PM 73.0 °F 66.0 °F 79% 30.02 in 10.0 mi ESE 11.5 mph - N/A   Clear
4:53 PM 69.1 °F 64.9 °F 87% 30.03 in 10.0 mi ESE 10.4 mph - N/A   Scattered Clouds
5:25 PM 68.0 °F 64.4 °F 88% 30.01 in 10.0 mi ESE 9.2 mph - N/A   Mostly Cloudy
5:51 PM 66.2 °F 64.4 °F 94% 30.01 in 2.5 mi ESE 10.4 mph - N/A   Overcast
5:53 PM 66.0 °F 64.9 °F 96% 30.03 in 1.0 mi ESE 10.4 mph - N/A   Overcast
6:00 PM 66.2 °F 64.4 °F 94% 30.02 in 0.2 mi ESE 9.2 mph - N/A Fog Fog
6:19 PM 66.2 °F 64.4 °F 94% 30.01 in 1.5 mi ESE 10.4 mph - N/A   Overcast
6:21 PM 66.2 °F 64.4 °F 94% 30.01 in 3.0 mi ESE 10.4 mph - N/A   Overcast
7:53 PM 64.9 °F 64.0 °F 97% 30.03 in 9.0 mi East 9.2 mph - N/A   Overcast
8:24 PM 64.4 °F 62.6 °F 94% 30.02 in 2.5 mi East 11.5 mph - N/A   Overcast
8:32 PM 64.4 °F 62.6 °F 94% 30.03 in 5.0 mi East 11.5 mph - N/A   Overcast
8:53 PM 64.0 °F 63.0 °F 96% 30.04 in 9.0 mi East 10.4 mph - N/A   Overcast
9:53 PM 64.0 °F 63.0 °F 96% 30.04 in 8.0 mi East 8.1 mph - N/A   Overcast
10:37 PM 64.4 °F 64.4 °F 100% 30.03 in 7.0 mi East 6.9 mph - N/A   Overcast
10:45 PM 64.4 °F 64.4 °F 100% 30.03 in 7.0 mi East 5.8 mph - N/A   Overcast
10:53 PM 64.9 °F 64.0 °F 97% 30.03 in 7.0 mi East 5.8 mph - N/A   Mostly Cloudy
11:53 PM 64.0 °F 63.0 °F 96% 30.03 in 7.0 mi ESE 3.5 mph - N/A   Partly Cloudy